Miscellaneous Local Product
Issued by NWS Hastings, NE

Home | Current Version | Previous Version | Text Only | Print | Product List | Glossary On
Versions: 1 2 3 4 5 6 7 8 9 10 11 12 13 14 15 16 17 18 19 20 21 22 23 24 25 26 27 28 29 30 31 32 33 34 35 36 37 38 39 40 41 42 43 44 45 46 47 48 49 50
000
AXUS43 KGID 232302
MISGRI

GID CWA HOURLY WEATHER ROUNDUP
NATIONAL WEATHER SERVICE HASTINGS NE
500 PM CST THU FEB 23 2017

NOTE: "FAIR" INDICATES FEW OR NO CLOUDS BELOW 12,000 FEET WITH NO
SIGNIFICANT WEATHER AND/OR OBSTRUCTIONS TO VISIBILITY.

...SOUTH CENTRAL NEBRASKA...

CITY           SKY/WX    TMP DP  RH WIND       PRES   REMARKS
GRAND ISLAND   LGT SNOW  32  32 100 N15       29.65R FOG     WCI  22
HASTINGS       MIX PCPN  33  31  92 NE22      29.60F FOG     WCI  21
KEARNEY        PTSUNNY   32  28  86 NE17G26   29.61F WCI  21
ORD            SNOW      30  27  88 NE13      29.67R VSB 1/2 WCI  20
YORK           CLOUDY    34  34 100 NE17      29.59R FOG     WCI  23
AURORA         MIX PCPN  33  32  98 NE14G21   29.63R WCI  23
LEXINGTON      LGT SNOW  31  28  91 N10       29.62R WCI  22
HOLDREGE       CLOUDY    32  31  95 NE17      29.59R WCI  21
HEBRON         LGT RAIN  38  37  94 N13G18    29.55R WCI  30

...NEBRASKA PANHANDLE...

CITY           SKY/WX    TMP DP  RH WIND       PRES   REMARKS
CHADRON        CLOUDY    25  21  85 NE17      29.82R FOG     WCI  12
ALLIANCE       FOG       22  19  89 NE28G37   29.71R VSB 1/4 WCI   4
SCOTTSBLUFF    SNOW      24  20  84 N9        29.78R VSB 1/2 WCI  14
SIDNEY         LGT SNOW  23  19  85 N18       29.69R FOG     WCI   9

...WESTERN AND NORTH CENTRAL NEBRASKA...

CITY           SKY/WX    TMP DP  RH WIND       PRES   REMARKS
VALENTINE      SNOW      26  22  84 N21G30    29.76S VSB 1/4 WCI  12
AINSWORTH      SNOW      27  26  96 N20G29    29.72R VSB 1/2 WCI  13
ONEILL         SNOW      29  28  96 N21G29    29.71R VSB 1/2 WCI  16
BROKEN BOW     SNOW      29  27  92 NE17      29.63R VSB 1/2 WCI  17
IMPERIAL       LGT SNOW  27  25  92 N17       29.66R VSB 3/4 WCI  14
NORTH PLATTE   MIX PCPN  30  24  78 NE17G24   29.67R WCI  18
MCCOOK         LGT SNOW  31  30  96 N14       29.62R FOG     WCI  21

...EASTERN NEBRASKA...

CITY           SKY/WX    TMP DP  RH WIND       PRES   REMARKS
NORFOLK        SNOW      31  27  85 NE21G32   29.66R VSB 1/2 WCI  18
SO SIOUX CITY  LGT SNOW  34  30  85 NE28G36   29.66F FOG     WCI  21
TEKAMAH        CLOUDY    37  32  82 NE20G32   29.65R WCI  27
COLUMBUS       CLOUDY    34  28  80 NE17G26   29.66R WCI  23
ALBION         LGT SNOW  32  29  89 NE15G23   29.67R VSB 1   WCI  22
OMAHA EPPLEY   LGT RAIN  39  34  82 NE18G25   29.60F WCI  30
OFFUTT AFB     CLOUDY    40  36  85 NE17G24   29.57F WCI  31
MILLARD        TSTM      41  37  86 NE9G21    29.59R
LINCOLN        TSTM      38  36  92 NE20G28   29.57F FOG     WCI  28
NEBRASKA CITY  CLOUDY    42  36  81 NE22      29.53R
BEATRICE       CLOUDY    41  39  93 NE13G22   29.52F FOG
FALLS CITY     CLOUDY    49  41  74 NE17      29.47F

...NORTHERN KANSAS...

CITY           SKY/WX    TMP DP  RH WIND       PRES   REMARKS
GOODLAND       CLOUDY    31  29  92 N14       29.59R WCI  21
HILL CITY      CLOUDY    35  33  92 NE21G29   29.56R FOG     WCI  24
NORTON         LGT SNOW  34  28  80 NE16G23   29.54F WCI  23
PHILLIPSBURG   LGT RAIN  36  36 100 N17G24    29.58R WCI  25
SMITH CENTER   CLOUDY    36  32  87 N24G30    29.53R WCI  24
HAYS             N/A     41  33  73 N29G36    29.47R
RUSSELL        FAIR      46  35  65 N23G32    29.43R
CONCORDIA      CLOUDY    42  36  79 N17G25    29.48S
SALINA         FAIR      57  42  57 N20G30    29.37S
TOPEKA         FAIR      62  49  62 E12       29.40F



USA.gov is the U.S. government's official web portal to all federal, state and local government web resources and services.